Home   Weather   Glace Bay   Past weeks

Flag for Canada Past Weather in Glace Bay, Nova Scotia, Canada — Yesterday and Last 2 Weeks

Now
30 °F

Passing clouds.


Feels Like: 23 °F
Forecast: 32 / 47 °F
Wind: 8 mph from South

Location: Sydney

Current Time: Apr 24, 2017 at 6:38:50 am

Latest Report: Apr 24, 2017 at 6:00 am


Visibility: 15 mi

Pressure: 30.03 "Hg

Humidity: 93%

Dew Point: 28 °F

Location of Glace BayLocation

Past Weather in Glace Bay — Graph

°F

Glace Bay Temperature Yesterday

Maximum temperature yesterday: 39 °F (at 4:00 pm)
Minimum temperature yesterday: 30 °F (at 11:00 pm)
Average temperature yesterday: 34 °F

High & Low Weather Summary for the Past Weeks

 TemperatureHumidityPressure
High64 °F (Apr 11, 3:00 pm)100% (Apr 9, 5:00 am)30.65 "Hg (Apr 9, 5:00 am)
Low16 °F (Apr 20, 5:00 am)23% (Apr 15, 5:00 pm)29.61 "Hg (Apr 17, 5:08 am)
Average36 °F80%30.12 "Hg
* Reported Apr 9 5:00 am — Apr 24 5:00 am, Glace Bay, Weather by CustomWeather, © 2017

Note: Actual official high and low records may vary slightly from our data, if they occured in-between our weather recording intervals... More about our weather records

Advertising

Glace Bay Weather History for the Previous 24 Hours

Scroll right to see more
 ConditionsComfort  
Time TempWeatherWind HumidityBarometerVisibility
5:00 am
Mon, Apr 24
32 °FPassing clouds.7 mph93%30.04 "Hg15 mi
4:00 am30 °FPassing clouds.9 mph93%30.05 "Hg15 mi
3:00 am28 °FClear.7 mph93%30.04 "Hg15 mi
2:00 am30 °FClear.8 mph93%30.03 "Hg15 mi
1:00 am28 °FClear.9 mph93%30.02 "Hg15 mi
12:00 am30 °FPassing clouds.7 mph93%30.01 "Hg15 mi
11:00 pm
Sun, Apr 23
30 °FPassing clouds.6 mph93%30.01 "Hg15 mi
10:00 pm32 °FPassing clouds.10 mph93%29.99 "Hg15 mi
9:00 pm34 °FPassing clouds.7 mph87%29.99 "Hg15 mi
8:00 pm36 °FPassing clouds.3 mph93%29.96 "Hg15 mi
7:00 pm37 °FMostly cloudy.3 mph87%29.94 "Hg15 mi
6:00 pm37 °FPartly sunny.5 mph87%29.92 "Hg15 mi
5:22 pm37 °FMore clouds than sun.8 mph87%29.90 "Hg15 mi
4:00 pm39 °FPartly sunny.9 mph87%29.88 "Hg15 mi
3:00 pm37 °FPartly sunny.10 mph93%29.88 "Hg15 mi
2:47 pm37 °FPartly sunny.10 mph93%29.87 "Hg15 mi
2:00 pm36 °FLow clouds.14 mph93%29.88 "Hg15 mi
1:07 pm36 °FLow clouds.10 mph93%29.88 "Hg12 mi
12:53 pm34 °FLight snow. Low clouds.10 mph100%29.88 "Hg7 mi
12:00 pm34 °FLight snow. Low clouds.12 mph93%29.88 "Hg2 mi
11:00 am34 °FLight snow. Low clouds.9 mph93%29.87 "Hg1 mi
10:00 am32 °FLight snow. Low clouds.9 mph100%29.87 "Hg1 mi
9:00 am32 °FLight snow. Low clouds.9 mph100%29.88 "Hg1 mi
8:00 am32 °FLight snow. Low clouds.6 mph100%29.88 "Hg1 mi
7:00 am32 °FLight snow. Low clouds.6 mph93%29.88 "Hg1 mi
6:00 am32 °FLight snow. Low clouds.6 mph93%29.87 "Hg1 mi
Weather by CustomWeather, © 2017

See weather overviewHow to use our weather pages